Location: Hohe Wand Kleine Kanzel
(47.8330°N, 16.0170°E)
Time: 16:18:11
(UTC+02:00)

Courier 1B Rocket - Pass Details

Date: 05 August 2021
Orbit: 920 x 1202 km, 28.3° (Epoch: 27 September)

Event Time Altitude Azimuth Distance (km) Brightness Sun altitude
Rises 01:07:23 0° 216° (SW) 3,910 - -25.2°
Reaches altitude 10° 01:12:40 10° 185° (S) 2,875 - -25.2°
Maximum altitude 01:14:37 11° 168° (SSE) 2,752 - -25.1°
Drops below altitude 10° 01:16:32 10° 152° (SSE) 2,816 - -25.1°
Sets 01:21:31 0° 120° (ESE) 3,693 - -25.0°
